Location: Ajisawe
(8.4333°N, 4.3833°E)
Time: 01:19:22
(UTC+00:00)

Courier 1B Rocket - Pass Details

Date: 01 May 2021
Orbit: 920 x 1202 km, 28.3° (Epoch: 13 May)

Event Time Altitude Azimuth Distance (km) Brightness Sun altitude
Rises 22:49:21 0° 282° (WNW) 3,733 - -63.1°
Reaches altitude 10° 22:52:13 10° 273° (W) 2,826 - -63.5°
Maximum altitude 22:58:24 35° 210° (SSW) 1,683 - -64.1°
Drops below altitude 10° 23:05:01 10° 147° (SSE) 3,014 - -64.7°
Sets 23:08:11 0° 138° (SE) 4,013 - -65.0°
